logo
Games tagged Pirates
# Game Release date
Price
Score rank
(Userscore / Metascore)
Owners
Players
Playtime (Median)
Developer(s)
Publisher(s)
1 The Curse of Monkey Island Oct 31, 1997 $6.99N/A (N/A/89%)100,000 .. 200,0000%00:00 (00:00)LucasArtsLucasArts, Lucasfilm, Disney
2 Return of the Obra Dinn Oct 18, 2018 $19.99N/A (N/A/89%)500,000 .. 1,000,0000%00:00 (00:00)Lucas Pope3909
3 Sid Meier's Pirates! Jul 11, 2005 $9.99N/A (N/A/88%)200,000 .. 500,0000%00:00 (00:00)Firaxis Games2K
4 Pillars of Eternity II: Deadfire May 8, 2018 $39.99N/A (N/A/88%)500,000 .. 1,000,0000%00:00 (00:00)Obsidian EntertainmentVersus Evil, Obsidian Entertainment
5 Monkey Island 2 Special Edition: LeChuck’s Revenge Jul 7, 2010 $9.99N/A (N/A/87%)200,000 .. 500,0000%00:00 (00:00)LucasArtsLucasArts, Lucasfilm, Disney
6 Sins of a Solar Empire: Trinity Feb 9, 2010 $19.99N/A (N/A/87%)100,000 .. 200,0000%00:00 (00:00)Ironclad Games, Stardock EntertainmentStardock Entertainment
7 The Secret of Monkey Island: Special Edition Jul 15, 2009 $9.99N/A (N/A/86%)500,000 .. 1,000,0001.67%00:27 (00:09)LucasArtsLucasArts, Lucasfilm, Disney
8 Escape from Monkey Island Nov 16, 2018 $6.99N/A (N/A/86%)20,000 .. 50,0000%00:00 (00:00)LucasArtsLucasfilm, Disney
9 Sins of a Solar Empire: Rebellion Jun 12, 2012 $39.99N/A (N/A/82%)2,000,000 .. 5,000,0000.37%32:16 (21:30)Ironclad Games, Stardock EntertainmentStardock Entertainment
10 Nelly Cootalot: The Fowl Fleet Mar 22, 2016 $19.99N/A (N/A/81%)20,000 .. 50,0000%00:00 (00:00)Alasdair Beckett-King, Application Systems HeidelbergApplication Systems Heidelberg
11 ArcheAge Mar 26, 2015 FreeN/A (N/A/80%)1,000,000 .. 2,000,0000%00:00 (00:00)XLGAMESKakao Games Europe B.V.
12 Time Commando Jul 31, 1996 $5.99N/A (N/A/80%)200,000 .. 500,0000%00:00 (00:00)[2.21][2.21]
13 Nelly Cootalot: Spoonbeaks Ahoy! HD May 22, 2019 $1.99N/A (N/A/80%)20,000 .. 50,0000%00:00 (00:00)Alasdair Beckett-King, Application Systems HeidelbergApplication Systems Heidelberg
14 Hero-U: Rogue to Redemption Jul 10, 2018 $29.99N/A (N/A/80%)20,000 .. 50,0000%00:00 (00:00)Transolar GamesTransolar Games
15 Flinthook Apr 18, 2017 $7.49N/A (N/A/80%)100,000 .. 200,0000%00:00 (00:00)Tribute Games Inc.Tribute Games Inc.
16 Tales of Monkey Island: Complete Season Jul 7, 2009 $14.99N/A (N/A/79%)200,000 .. 500,0000%00:00 (00:00)TelltaleTelltale
17 Gothic II: Gold Edition Nov 29, 2005 $9.99N/A (N/A/79%)500,000 .. 1,000,0001.01%03:18 (01:06)Piranha BytesTHQ Nordic
18 Pirates Outlaws Aug 28, 2019 $19.99N/A (N/A/79%)20,000 .. 50,0000%00:00 (00:00)Fabled GameFabled Game
19 ONE PIECE ODYSSEY Jan 12, 2023 $59.99N/A (N/A/77%)50,000 .. 100,00075%10:12 (11:34)ILCA, Inc.Bandai Namco Entertainment Inc.
20 Port Royale 2 Apr 30, 2004 $4.99N/A (N/A/75%)50,000 .. 100,0000%00:00 (00:00)Ascaron Entertainment ltd.Strategy First
21 Assassin’s Creed Rogue Mar 9, 2015 $19.99N/A (N/A/74%)1,000,000 .. 2,000,0000%00:00 (00:00)Ubisoft Sofia, Ubisoft KievUbisoft
22 Space Pirates and Zombies Aug 15, 2011 $9.99N/A (N/A/74%)200,000 .. 500,0000%00:00 (00:00)MinMax Games Ltd.MinMax Games Ltd.
23 AirBuccaneers Apr 29, 1984 N/AN/A (N/A/74%)100,000 .. 200,0000%00:00 (00:00)LudoCraft Ltd.LudoCraft Ltd.
24 Nantucket Jan 18, 2018 $17.99N/A (N/A/74%)100,000 .. 200,0000%00:00 (00:00)Picaresque StudioFish Eagle
25 Jolly Rover Jun 7, 2010 $9.99N/A (N/A/71%)100,000 .. 200,0000%00:00 (00:00)BrawsomeBrawsome
26 Sea Dogs Nov 25, 2000 $11.99N/A (N/A/71%)50,000 .. 100,0000%00:00 (00:00)AkellaAkella
27 Willy Morgan and the Curse of Bone Town Aug 11, 2020 $19.99N/A (N/A/71%)0 .. 20,0000%00:00 (00:00)imaginarylabLeonardo Interactive, WhisperGames
28 Battlewake Sep 10, 2019 $29.99N/A (N/A/70%)0 .. 20,0000%00:00 (00:00)SurviosSurvios
29 Risen 2: Dark Waters Apr 26, 2012 $9.99N/A (N/A/69%)1,000,000 .. 2,000,0000%00:00 (00:00)Piranha BytesTHQ Nordic
30 Here Be Dragons Aug 16, 2019 $2.49N/A (N/A/69%)0 .. 20,0000%00:00 (00:00)Red Zero GamesPansolo
31 Commander: Conquest of the Americas Jul 30, 2010 $9.99N/A (N/A/68%)50,000 .. 100,0000%00:00 (00:00)Nitro GamesNitro Games
32 Port Royale 4 Sep 25, 2020 $39.99N/A (N/A/68%)100,000 .. 200,0000%00:00 (00:00)Gaming MindsKalypso Media
33 East India Company Jul 31, 2009 $9.99N/A (N/A/67%)50,000 .. 100,0000%00:00 (00:00)Nitro GamesNitro Games
34 Ghost Pirates of Vooju Island Jan 27, 2015 $9.99N/A (N/A/66%)0 .. 20,0000%00:00 (00:00)Autumn MoonViva Media
35 Risen 3 - Titan Lords Aug 12, 2014 $14.99N/A (N/A/65%)500,000 .. 1,000,0000%00:00 (00:00)Piranha BytesTHQ Nordic
36 The Guild II - Pirates of the European Seas May 18, 2007 $9.99N/A (N/A/63%)200,000 .. 500,0000%00:00 (00:00)4HEAD StudiosTHQ Nordic
37 Windward May 12, 2015 $9.99N/A (N/A/61%)200,000 .. 500,0000%00:00 (00:00)Tasharen Entertainment Inc.Tasharen Entertainment Inc.
38 Sea Dogs: City of Abandoned Ships May 12, 2009 $7.99N/A (N/A/61%)20,000 .. 50,0000%00:00 (00:00)AkellaAkella
39 Tempest: Pirate Action RPG Aug 22, 2016 $14.99N/A (N/A/60%)200,000 .. 500,0000%00:00 (00:00)HeroCraftHeroCraft PC
40 Pirates of Black Cove Aug 2, 2011 $9.99N/A (N/A/56%)50,000 .. 100,0000%00:00 (00:00)Nitro GamesPlaydead
41 Puzzle Pirates Aug 31, 2011 FreeN/A (N/A)200,000 .. 500,0000%00:00 (00:00)Grey HavensGrey Havens
42 Pirates, Vikings, and Knights II Feb 12, 2010 FreeN/A (N/A)1,000,000 .. 2,000,0000%00:00 (00:00)Octoshark StudiosOctoshark Studios
43 Age of Booty Mar 9, 2009 N/AN/A (N/A)20,000 .. 50,0000%00:00 (00:00)Certain Affinity™Capcom
44 Tradewinds Classics Jan 1, 1988 N/AN/A (N/A)0 .. 20,0000%00:00 (00:00)Sandlot GamesSandlot Games
45 BattleSteam Jul 31, 2022 FreeN/A (N/A)0 .. 20,0000%00:00 (00:00)3dcafe3dcafe
46 SugarWinds: Prologue Jan 27, 2022 FreeN/A (N/A)50,000 .. 100,0000%00:00 (00:00)Aatlantis CodeAatlantis Code
47 IWOCon 2021 Mar 26, 2021 N/AN/A (N/A)20,000 .. 50,0000%00:00 (00:00)Indie World OrderIndie World Order
48 Save the Pirate: Sea Story Feb 25, 2021 FreeN/A (N/A)0 .. 20,0000%00:00 (00:00)MaurisMauris
49 Batterneers Dec 1, 2020 FreeN/A (N/A)0 .. 20,0000%00:00 (00:00)Batterneers DevBatterneers Dev
50 Tribal Wars Nov 12, 2020 FreeN/A (N/A)100,000 .. 200,0000%00:00 (00:00)InnoGamesInnoGames
51 Chaos Combat Chess Oct 20, 2020 N/AN/A (N/A)50,000 .. 100,0000%00:00 (00:00)This Game StudioRogue Games, Inc.
52 Turtle's Quest Aug 26, 2020 FreeN/A (N/A)20,000 .. 50,0000%00:00 (00:00)Kid's RevoltKid's Revolt
53 Penny's Path Jul 24, 2020 FreeN/A (N/A)0 .. 20,0000%00:00 (00:00)Strategic Thinking LLCStrategic Thinking LLC
54 Maelstrom Sep 20, 2019 FreeN/A (N/A)200,000 .. 500,0000%00:00 (00:00)Gunpowder Games, Inc.Double Jump Publishing
55 Uncharted Waters Online Dec 19, 2018 FreeN/A (N/A)50,000 .. 100,0000%00:00 (00:00)KOEI TECMO GAMES CO., LTD.Papaya Play
56 Puzzle Plunder Oct 9, 2018 FreeN/A (N/A)20,000 .. 50,0000%00:00 (00:00)WindybeardWindybeard
57 Unearned Bounty Aug 22, 2018 FreeN/A (N/A)100,000 .. 200,0000%00:00 (00:00)Extrokold GamesExtrokold Games
58 Crooked Waters Jul 13, 2018 FreeN/A (N/A)0 .. 20,0000%00:00 (00:00)Craft Game StudioCraft Game Studio
59 Puzzle Pirates: Dark Seas Jul 6, 2018 FreeN/A (N/A)100,000 .. 200,0000%00:00 (00:00)Grey HavensGrey Havens
60 The Pirates of Sector 7 Jun 1, 2018 FreeN/A (N/A)0 .. 20,0000%00:00 (00:00)Kneeling Bean StudiosLegacy Gameworks
61 League of Pirates Mar 13, 2018 N/AN/A (N/A)0 .. 20,0000%00:00 (00:00)upjersupjers
62 The Pirate: Plague of the Dead Oct 13, 2017 FreeN/A (N/A)100,000 .. 200,0007.69%25:51 (08:37)Home Net GamesHome Net Games
63 BATTLECREW Space Pirates Jul 10, 2017 FreeN/A (N/A)100,000 .. 200,0000%00:00 (00:00)DONTNOD ELEVENDONTNOD ELEVEN
64 Son Korsan May 30, 2017 FreeN/A (N/A)20,000 .. 50,0000%00:00 (00:00)Consala GamesConsala Games
65 Worlds Adrift May 24, 2017 N/AN/A (N/A)100,000 .. 200,0000%00:00 (00:00)Bossa StudiosBossa Studios
66 Man O' War: Corsair - Warhammer Naval Battles Apr 19, 2017 N/AN/A (N/A)20,000 .. 50,0000%00:00 (00:00)Evil Twin ArtworksEvil Twin Artworks
67 The Pirate: Caribbean Hunt Aug 24, 2016 FreeN/A (N/A)500,000 .. 1,000,0003.33%13:22 (08:54)Home Net GamesHome Net Games
68 Swords & Crossbones: An Epic Pirate Story Sep 30, 2015 $4.99N/A (N/A)0 .. 20,0000%00:00 (00:00)Epic Devs LLCEpic Devs LLC
69 Black Sails - The Ghost Ship Sep 17, 2015 $9.99N/A (N/A)50,000 .. 100,0000%00:00 (00:00)Deck13Deck13
70 Braveland Pirate Sep 15, 2015 $11.99N/A (N/A)50,000 .. 100,0000%00:00 (00:00)Tortuga TeamTortuga Team
71 One Piece Pirate Warriors 3 Aug 27, 2015 $39.99N/A (N/A)500,000 .. 1,000,0000%00:00 (00:00)KOEI TECMO GAMES CO., LTD.BANDAI NAMCO Entertainment
72 HoD: On open seas Jul 20, 2015 $0.99N/A (N/A)0 .. 20,0000%00:00 (00:00)Pirate goup mediaPirate group media
73 Shantae and the Pirate's Curse Apr 23, 2015 $19.99N/A (N/A)100,000 .. 200,0000%00:00 (00:00)WayForwardWayForward
74 Pirate's Life Apr 17, 2015 $4.99N/A (N/A)0 .. 20,0000%00:00 (00:00)Team EyepatchNone
75 Distant Star: Revenant Fleet Apr 7, 2015 $9.99N/A (N/A)50,000 .. 100,0000%00:00 (00:00)Blazing GriffinBlazing Griffin
76 Hero of the Kingdom II Feb 20, 2015 $7.99N/A (N/A)100,000 .. 200,0000%00:00 (00:00)Lonely TroopsLonely Troops
77 Robinson Crusoe and the Cursed Pirates Feb 10, 2015 $9.99N/A (N/A)20,000 .. 50,0000%00:00 (00:00)MagicIndieMumboJumbo
78 Forsaken Isle Feb 6, 2015 $7.99N/A (N/A)20,000 .. 50,0000%00:00 (00:00)SmoodlezSmoodlez
79 Pirate Hell Nov 7, 2014 $5.99N/A (N/A)20,000 .. 50,0000%00:00 (00:00)Sascha HartlebSascha Hartleb
80 Disney Pirates of the Caribbean: At Worlds End May 22, 2007 $19.99N/A (N/A)50,000 .. 100,0000%00:00 (00:00) Eurocom Entertainment SoftwareDisney
81 Pixel Piracy Apr 23, 2015 $14.99N/A (N/A)500,000 .. 1,000,0001.33%00:43 (00:14)Vitali KirpuCommotion Games Pty Ltd
82 Heileen 3: New Horizons Dec 12, 2012 $24.99N/A (N/A)0 .. 20,0000%00:00 (00:00)Winter WolvesWinter Wolves
83 Port Royale 3 May 4, 2012 $14.99N/A (N/A)200,000 .. 500,0000%00:00 (00:00)Gaming Minds StudiosKalypso Media Digital
84 Nightmares from the Deep: The Cursed Heart Apr 19, 2012 N/AN/A (N/A)100,000 .. 200,0000%00:00 (00:00)Artifex MundiArtifex Mundi
85 LEGO Pirates of the Caribbean: The Video Game May 24, 2011 $19.99N/A (N/A)200,000 .. 500,0000%00:00 (00:00)Traveller's TalesDisney
86 Zombie Pirates Sep 1, 2010 $14.99N/A (N/A)0 .. 20,0000%00:00 (00:00)Dust Devil Studios Inc.Strategy First
87 Woody Two-Legs: Attack of the Zombie Pirates Nov 2, 2010 $4.99N/A (N/A)20,000 .. 50,0000%00:00 (00:00)Nitro GamesNitro Games
88 Tropico Reloaded Jul 24, 2009 $6.99N/A (N/A)200,000 .. 500,0000%00:00 (00:00)PopTop Software, BreakAway Games, Frog City SoftwareKalypso Media Digital
89 Sea Dogs: Caribbean Tales Sep 12, 2006 $11.99N/A (N/A)0 .. 20,0000%00:00 (00:00)AkellaAkella
90 Disney's Treasure Planet: Battle of Procyon Oct 31, 2002 $9.99N/A (N/A)20,000 .. 50,0000%00:00 (00:00)Barking Dog StudiosDisney
91 Sea Legends May 31, 1996 $6.99N/A (N/A)50,000 .. 100,0000%00:00 (00:00)Mir Dialogue, OceanZiggurat
92 Assassin’s Creed IV Black Flag Coming soon $39.99N/A (N/A)5,000,000 .. 10,000,0000.4%22:11 (07:23)Ubisoft MontrealUbisoft
93 Rapscallions On Deck - Otome Jan 19, 2023 $4.99N/A (N/A)0 .. 20,0000%00:00 (00:00)ChaniMKChaniMK
94 Project Sail Jan 13, 2023 $14.99N/A (N/A)0 .. 20,0000%00:00 (00:00)Lukas KuppersLukas Kuppers
95 A Rum Tale Jan 5, 2023 $6.99N/A (N/A)0 .. 20,0000%00:00 (00:00)ARCSTONE GAMESARCSTONE GAMES
96 Sail Forth Dec 21, 2022 $16.99N/A (N/A)0 .. 20,0000%00:00 (00:00)Festive VectorThe Quantum Astrophysicists Guild
97 Out of the ground Dec 13, 2022 $10.99N/A (N/A)0 .. 20,0000%00:00 (00:00)Max PedroMax Pedro
98 Wavetale Dec 12, 2022 $29.99N/A (N/A)0 .. 20,0000%00:00 (00:00)Thunderful DevelopmentThunderful Publishing
99 Cannon Jump Dec 12, 2022 $3.99N/A (N/A)20,000 .. 50,0000%00:00 (00:00)quasardeepquasardeep
100 Pirates Gold Dec 6, 2022 $60N/A (N/A)0 .. 20,0000%00:00 (00:00)didlstudiodidlstudio
101 Pirates - Digital Strategy Game Dec 2, 2022 $9.99N/A (N/A)0 .. 20,0000%00:00 (00:00)Twin Dimensional ProductionsTwin Dimensional Productions
102 Chess Royale Nov 16, 2022 $0.99N/A (N/A)20,000 .. 50,0000%00:00 (00:00)Mewton GamesMewton Games
103 Timeloop: Sink Again Beach Nov 16, 2022 $4.55N/A (N/A)20,000 .. 50,0000%00:00 (00:00)FangsLab, FatcoonFangsLab
104 Arcane Waters Nov 14, 2022 $19.99N/A (N/A)0 .. 20,0000%00:00 (00:00)Black Mammoth GamesGrey Havens
105 Brain Syndrome VR Oct 28, 2022 $4.99N/A (N/A)50,000 .. 100,0000%00:00 (00:00)Derrick DavisonDerrick Davison
106 FunnyPizzaLand 2 Oct 7, 2022 $12.99N/A (N/A)0 .. 20,0000%00:00 (00:00)RomanGOBBOGOES
107 Planked! Survive & Thrive Oct 1, 2022 $9.99N/A (N/A)0 .. 20,0000%00:00 (00:00)Bent Nail Studios LLCBent Nail Studios LLC
108 Click To Sail Sep 29, 2022 $1.99N/A (N/A)0 .. 20,0000%00:00 (00:00)EdFarageEdFarage
109 Salt 2: Shores of Gold Sep 20, 2022 $19.99N/A (N/A)50,000 .. 100,00020%01:48 (00:54)Lavaboots StudiosLavaboots Studios
110 Return to Monkey Island Sep 19, 2022 $24.99N/A (N/A)200,000 .. 500,00025%03:07 (01:43)Terrible ToyboxDevolver Digital
111 The Spanish Privateer Sep 16, 2022 $14.99N/A (N/A)20,000 .. 50,0000%00:00 (00:00)SinSisters StudiosSinSisters Studios
112 Plunder Panic Sep 16, 2022 $19.99N/A (N/A)0 .. 20,0000%00:00 (00:00)Will Winn GamesWill Winn Games
113 Catherine Ragnor - Blackbeards Fury Sep 14, 2022 $4.79N/A (N/A)0 .. 20,0000%00:00 (00:00)E-FunSoft GamesHH-Games
114 Sail Aug 10, 2022 $14.99N/A (N/A)0 .. 20,0000%00:00 (00:00)Red Team 19, Continuum XRGarett cook
115 Fill and Cross Pirate Riddles 3 Aug 8, 2022 $4.99N/A (N/A)0 .. 20,0000%00:00 (00:00)Creobit8floor
116 The Silent Sky Part I Jul 28, 2022 $13.99N/A (N/A)0 .. 20,0000%00:00 (00:00)KAPAKAPA
117 Autonauts vs Piratebots Jul 28, 2022 $13.39N/A (N/A)20,000 .. 50,0000%00:00 (00:00)DenkiCurve Games
118 Captain Bones Jul 27, 2022 $14.99N/A (N/A)0 .. 20,0000%00:00 (00:00)Saygın KarahanWorld of Poly
119 Warlordocracy Jul 16, 2022 $4.99N/A (N/A)0 .. 20,0000%00:00 (00:00)Brian Lancaster, Laughing Coyote SoftwareBrian Lancaster, Laughing Coyote Software
120 Privateer Escape Jun 26, 2022 $3.99N/A (N/A)0 .. 20,0000%00:00 (00:00)Mobile Game StudioMobile Game Studio
121 25°N 71°W Jun 20, 2022 $11.99N/A (N/A)0 .. 20,0000%00:00 (00:00)SE {} KSSE {} KS
122 Pirates Things Jun 15, 2022 $7.99N/A (N/A)0 .. 20,0000%00:00 (00:00)HotFoodGamesHotFoodGames
123 Polar Bear Riding A Ninja Jun 1, 2022 $6.99N/A (N/A)0 .. 20,0000%00:00 (00:00)Waily WailyWaily Waily
124 JumpBeard May 12, 2022 $7.99N/A (N/A)0 .. 20,0000%00:00 (00:00)RealPlayers ProductionRealPlayers Production
125 The Struggle of Combat May 6, 2022 $4.99N/A (N/A)0 .. 20,0000%00:00 (00:00)YrbiaxYrbiax
126 TIME TO HUNT May 6, 2022 N/AN/A (N/A)0 .. 20,0000%00:00 (00:00)Wuhan NetCiao Technology Co., LtdWuhan NetCiao Technology Co., Ltd
127 Leviathan's Sword May 2, 2022 $14.99N/A (N/A)0 .. 20,0000%00:00 (00:00)Nosgalor GamesNosgalor Games
128 Sea of Craft Apr 28, 2022 $14.99N/A (N/A)20,000 .. 50,0000%00:00 (00:00)Wizard GamesWizard Games
129 Maritime Calling Apr 12, 2022 $14.99N/A (N/A)0 .. 20,0000%00:00 (00:00)Tiamat GamesMeridian4
130 Chest Mate Apr 8, 2022 $4.99N/A (N/A)0 .. 20,0000%00:00 (00:00)OptizOnionOptizOnion
131 Pirates of Gravitae Mar 31, 2022 $9.99N/A (N/A)0 .. 20,0000%00:00 (00:00)Innerverse GamesInnerverse Games
132 Void Marauders Mar 29, 2022 $11.99N/A (N/A)0 .. 20,0000%00:00 (00:00)AutarcaAutarca
133 Epic Pirate Mar 25, 2022 $0.99N/A (N/A)0 .. 20,0000%00:00 (00:00)Archor WrightArchor Games
134 Lost Souls Mar 21, 2022 $6.99N/A (N/A)0 .. 20,0000%00:00 (00:00)Vitaliy Tyschenkokind of mind
135 Valley Dash Mar 21, 2022 $1.99N/A (N/A)0 .. 20,0000%00:00 (00:00)Levi Isaac, White RoseWhite Rose
136 Pixel Pirate Mar 18, 2022 $24.99N/A (N/A)0 .. 20,0000%00:00 (00:00)Stas Paty9mkinPiece Of Voxel
137 Pirate's Solitaire Mar 16, 2022 $4.99N/A (N/A)0 .. 20,0000%00:00 (00:00)Creobit8floor
138 Pompom Mar 14, 2022 $9.99N/A (N/A)20,000 .. 50,0000%00:00 (00:00)TOMO CAMPPID Games
139 Buccaneers! Mar 7, 2022 $10.43N/A (N/A)0 .. 20,0000%00:00 (00:00)Skyward DigitalValkyrie Initiative
140 Pirate's Gold Mar 1, 2022 $9.99N/A (N/A)20,000 .. 50,0000%00:00 (00:00)Jochen Heizmann, Emmanuel HennéAsylum Square
141 Behind Border Zone Feb 23, 2022 $1.99N/A (N/A)0 .. 20,0000%00:00 (00:00)SoerGameSoerGame
142 Helm or High Water Feb 17, 2022 $14.99N/A (N/A)0 .. 20,0000%00:00 (00:00)Jordan HobgoodJordan Hobgood
143 Shadow Madness Feb 15, 2022 $14.99N/A (N/A)0 .. 20,0000%00:00 (00:00)CravePiko Interactive LLC, Bleem!
144 Rise of the Third Power Feb 10, 2022 $19.99N/A (N/A)0 .. 20,0000%00:00 (00:00)Stegosoft GamesDANGEN Entertainment
145 Old Salt Jan 19, 2022 $14.99N/A (N/A)0 .. 20,0000%00:00 (00:00)Kneeshaw Developments, Never Board GamesKneeshaw Developments
146 Neko Ghost, Jump! Jan 11, 2022 $14.99N/A (N/A)0 .. 20,0000%00:00 (00:00)Burgos GamesBurgos Games
147 Crowalt: Traces of the Lost Colony Jan 6, 2022 $12.99N/A (N/A)0 .. 20,0000%00:00 (00:00)Madcraft StudiosGrabTheGames
148 Big Booty Adventures Jan 5, 2022 $8.99N/A (N/A)20,000 .. 50,0000%00:00 (00:00)NeVReal StudiosNeVReal Studios
149 Rust Raiders Dec 20, 2021 $4.99N/A (N/A)0 .. 20,0000%00:00 (00:00)Overlord Game StudioOverlord Game Studio
150 Istanbul Ship Simulator Dec 20, 2021 $3.99N/A (N/A)0 .. 20,0000%00:00 (00:00)Sevisen StudiosSevisen Studios
151 Trails Of Gold Privateers Dec 16, 2021 $12.99N/A (N/A)0 .. 20,0000%00:00 (00:00)La Suite StudioLa Suite Studio, Plug In Digital
152 Match Three Pirates II Dec 16, 2021 $9.99N/A (N/A)0 .. 20,0000%00:00 (00:00)Graphium StudioDenda Games
153 Trash Sailors: Co-Op Trash Raft Simulator Dec 16, 2021 $19.99N/A (N/A)20,000 .. 50,0000%00:00 (00:00)fluckyMachinetinyBuild
154 Cloud Escape Dec 12, 2021 $4.99N/A (N/A)0 .. 20,0000%00:00 (00:00)Andreas BaumAndreas Baum
155 Cleo - a pirate's tale Dec 12, 2021 $7.49N/A (N/A)20,000 .. 50,0000%00:00 (00:00)Christoph SchultzChristoph Schultz
156 Hero of the Kingdom: The Lost Tales 2 Nov 19, 2021 $6.99N/A (N/A)20,000 .. 50,0000%00:00 (00:00)Lonely TroopsLonely Troops
157 Coin Treasures Nov 8, 2021 FreeN/A (N/A)0 .. 20,0000%00:00 (00:00)BraincircusBraincircus
158 RagingFist Nov 4, 2021 $199.99N/A (N/A)0 .. 20,0000%00:00 (00:00)healthy gamehealthy game
159 Peachleaf Pirates Sep 27, 2021 $6.99N/A (N/A)0 .. 20,0000%00:00 (00:00)Dog Kiss StudioDigerati
160 The Chaser's Voyage Sep 17, 2021 $19.99N/A (N/A)0 .. 20,0000%00:00 (00:00)Bright at Midnight: A Game StudioBright at Midnight: A Game Studio
161 100 hidden cups Sep 15, 2021 $0.49N/A (N/A)0 .. 20,0000%00:00 (00:00)Anatoliy Loginovskikh, Igor ShalimovAnatoliy Loginovskikh
162 Table of Tales: The Crooked Crown Sep 14, 2021 $9.99N/A (N/A)0 .. 20,0000%00:00 (00:00)Tin Man Games, Zero One StudioTin Man Games
163 In Search of Fon Vitae Aug 30, 2021 $4.99N/A (N/A)0 .. 20,0000%00:00 (00:00)EarlgreyEarlgrey
164 A Winding Path Aug 26, 2021 $7.99N/A (N/A)0 .. 20,0000%00:00 (00:00)Three Eyed GamesThree Eyed Games
165 VR Pirates of the Caribbean Life Experience Aug 25, 2021 $4.99N/A (N/A)0 .. 20,0000%00:00 (00:00)William at OxfordWilliam at Oxford
166 Hidden Shapes Black Skull - Jigsaw Puzzle Game Aug 11, 2021 $1.99N/A (N/A)0 .. 20,0000%00:00 (00:00)YAW StudiosYAW Studios
167 Man of the World Aug 1, 2021 $2.99N/A (N/A)0 .. 20,0000%00:00 (00:00)redduckstudioredduckstudio
168 Seafarers Aug 1, 2021 $4.99N/A (N/A)0 .. 20,0000%00:00 (00:00)Egghead Interactive LLC.Egghead Interactive LLC.
169 Historic Fighters Jul 30, 2021 N/AN/A (N/A)50,000 .. 100,0000%00:00 (00:00)QVIK GAMEZQVIK GAMEZ
170 Furious Seas Jul 18, 2021 $19.99N/A (N/A)0 .. 20,0000%00:00 (00:00)Future ImmersiveFuture Immersive
171 Pugmire: Treasure of the Sea Dogs Jul 15, 2021 $4.99N/A (N/A)0 .. 20,0000%00:00 (00:00)Choice of GamesChoice of Games
172 Walkabout Mini Golf VR Jul 15, 2021 $14.99N/A (N/A)100,000 .. 200,0000%00:00 (00:00)Mighty CoconutMighty Coconut
173 Salt and Sails Jul 1, 2021 $9.99N/A (N/A)0 .. 20,0000%00:00 (00:00)DiaMMaxPiece Of Voxel
174 Antiprism Jun 21, 2021 $17.99N/A (N/A)0 .. 20,0000%00:00 (00:00)Zero FunZero Fun
175 Super Sunny Island Jun 17, 2021 $4.99N/A (N/A)0 .. 20,0000%00:00 (00:00)lightUPlightUP
176 Build Em' Faster Jun 7, 2021 $5.99N/A (N/A)0 .. 20,0000%00:00 (00:00)CrooLabCrooLab
177 Loot Slider Jun 1, 2021 $7.99N/A (N/A)0 .. 20,0000%00:00 (00:00)Retrofied GamesRetrofied Games
178 Girls' civilization 2 Jun 1, 2021 $12.99N/A (N/A)0 .. 20,0000%00:00 (00:00)MoondolinoMoondolino
179 I Am the Captain Now May 27, 2021 $8.99N/A (N/A)0 .. 20,0000%00:00 (00:00)North Lake GamesNorth Lake Games
180 King of Seas May 25, 2021 $24.99N/A (N/A)20,000 .. 50,0000%00:00 (00:00)3DCloudsTeam17
181 Crafty May 23, 2021 $18.99N/A (N/A)0 .. 20,0000%00:00 (00:00)Wonder FactoryWonder Factory
182 Fish Person Shooter May 20, 2021 $12.99N/A (N/A)0 .. 20,0000%00:00 (00:00)8AH8AH
183 BARBAROS May 5, 2021 $3.99N/A (N/A)0 .. 20,0000%00:00 (00:00)Indie DeveloperIndie Developer
184 A Token War Apr 28, 2021 $12.99N/A (N/A)0 .. 20,0000%00:00 (00:00)UpRoom GamesUpRoom Games
185 Golden Force Apr 22, 2021 $14.99N/A (N/A)0 .. 20,0000%00:00 (00:00)Storybird StudioNo Gravity Games
186 Cutthroat Cove Mar 30, 2021 $10.99N/A (N/A)0 .. 20,0000%00:00 (00:00)Wicked GamesWicked Games
187 Country Discoverer Apr 16, 2021 $7.99N/A (N/A)0 .. 20,0000%00:00 (00:00)goatrope gamesgoatrope games
188 Lair Hockey Apr 12, 2021 $9.99N/A (N/A)0 .. 20,0000%00:00 (00:00)Never Written GamesNever Written Games
189 Cosmic Tank Apr 7, 2021 $4.99N/A (N/A)20,000 .. 50,0000%00:00 (00:00)Game MastermindsGame Masterminds
190 Shell Shuffle Apr 5, 2021 $9.99N/A (N/A)20,000 .. 50,0000%00:00 (00:00)Victorian ClambakeVictorian Clambake
191 Pirate Story Mar 18, 2021 $1.99N/A (N/A)0 .. 20,0000%00:00 (00:00)Luci EntertainmentLuci Entertainment
192 boom faster Mar 15, 2021 $0.99N/A (N/A)50,000 .. 100,0000%00:00 (00:00)Crocodile and cactusCrocodile and cactus
193 Pirate Island Mar 13, 2021 $2.99N/A (N/A)0 .. 20,0000%00:00 (00:00)ImperiumGameImperiumGame
194 PIRATECRAFT Mar 12, 2021 $0.99N/A (N/A)0 .. 20,0000%00:00 (00:00)Game for gamesGame for games
195 Duel on Board Mar 4, 2021 $7.99N/A (N/A)0 .. 20,0000%00:00 (00:00)rebel rabbitindienova
196 Merchants of the Caribbean Mar 3, 2021 $2.44N/A (N/A)0 .. 20,0000%00:00 (00:00)GameOn ProductionAlawar Entertainment
197 Silent Sector Feb 17, 2021 $14.99N/A (N/A)0 .. 20,0000%00:00 (00:00)Rake in GrassRake in Grass
198 Pirate of Madagascar Island Feb 15, 2021 $4.99N/A (N/A)0 .. 20,0000%00:00 (00:00)Pranay MundaPranay Munda
199 Captains & Dungeons Feb 14, 2021 $4.99N/A (N/A)0 .. 20,0000%00:00 (00:00)Liprix GamesLiprix Games
200 Endless Voyage / 无尽航线 Jan 7, 2021 $16.99N/A (N/A)50,000 .. 100,0000%00:00 (00:00)Dalaran Game StudioKuYou Games
201 Timewalk Tower Defense Jan 1, 2021 FreeN/A (N/A)50,000 .. 100,0000%00:00 (00:00)Maxeymus GamesMaxeymus Games
202 Pinball Dec 29, 2020 $3.99N/A (N/A)0 .. 20,0000%00:00 (00:00)HubelHubel
203 Captain Pegleg Dec 27, 2020 $1.99N/A (N/A)0 .. 20,0000%00:00 (00:00)xeamxeam
204 Sink Again Dec 17, 2020 N/AN/A (N/A)20,000 .. 50,0000%00:00 (00:00)FlatcoonFlatcoon
205 Frontiers Reach Nov 30, 2020 $19.99N/A (N/A)20,000 .. 50,0000%00:00 (00:00)Blind Alien ProductionsBlind Alien Productions
206 StoneTide: Age of Pirates Nov 27, 2020 $9.99N/A (N/A)0 .. 20,0000%00:00 (00:00)StoneTide EntertainmentStoneTide Entertainment
207 Captain Sabertooth and the Magic Diamond Nov 20, 2020 $34.99N/A (N/A)0 .. 20,0000%00:00 (00:00)Ravn Studio, Rock Pocket GamesRavn Studio
208 Pocket Penguin DX ( ポケットペンギン): A Game Boy Style Adventure Nov 15, 2020 $5.99N/A (N/A)0 .. 20,0000%00:00 (00:00)Dog Biscuit StudiosDog Biscuit Studios
209 Be a Pirate Nov 9, 2020 $9.99N/A (N/A)0 .. 20,0000%00:00 (00:00)AmfichPiece Of Voxel
210 Blazing Sails Nov 5, 2020 $14.99N/A (N/A)100,000 .. 200,0009.52%02:27 (01:38)Get Up GamesIceberg Interactive
211 Out of Reach: Treasure Royale Oct 14, 2020 $14.99N/A (N/A)0 .. 20,0000%00:00 (00:00)Space Boat StudiosPlayWay S.A.
212 A pirate quartermaster Oct 2, 2020 $17.99N/A (N/A)0 .. 20,0000%00:00 (00:00)Ivan ArmandyIvan Armandy
213 Path to Prosperity Sep 18, 2020 $14.99N/A (N/A)0 .. 20,0000%00:00 (00:00)Essence GamesEssence Games
214 Poly Pirates Aug 15, 2020 $4.99N/A (N/A)0 .. 20,0000%00:00 (00:00)Daniel CrandallShroud Studios
215 Color Security Sep 6, 2020 FreeN/A (N/A)0 .. 20,0000%00:00 (00:00)TposeSoftwareTposeSoftware
216 Space Bar at the End of the Galaxy Aug 21, 2020 $4.99N/A (N/A)0 .. 20,0000%00:00 (00:00)Little Black Book EntertainmentLittle Black Book Entertainment
217 Aye Aye, Captain Aug 4, 2020 $2.99N/A (N/A)0 .. 20,0000%00:00 (00:00)North State GamesNorth State Games
218 Magic Archers Jul 27, 2020 $7.99N/A (N/A)0 .. 20,0000%00:00 (00:00)Village People GamesVillage People Games
219 My Sail And My Sea Jun 30, 2020 $2.99N/A (N/A)0 .. 20,0000%00:00 (00:00)心田游戏(Heart Field Games)心田游戏(Heart Field Games)
220 Cannon Father Jun 23, 2020 $5.99N/A (N/A)0 .. 20,0000%00:00 (00:00)Two Scoop StudioTwo Scoop Studio
221 Takelshin Jun 19, 2020 $3.99N/A (N/A)0 .. 20,0000%00:00 (00:00)MINBEKKERMINBEKKER
222 Sea of Thieves Jun 3, 2020 $39.99N/A (N/A)5,000,000 .. 10,000,0004.56%09:27 (05:42)Rare LtdXbox Game Studios
223 Rum & Gun May 1, 2020 $4.99N/A (N/A)0 .. 20,0000%00:00 (00:00)BoringtonBorington
224 Hecaton Apr 5, 2020 $4.99N/A (N/A)0 .. 20,0000%00:00 (00:00)NWatch GamesNWatch Games
225 Pirates? Pirates! Mar 30, 2020 $3.99N/A (N/A)0 .. 20,0000%00:00 (00:00)Amrita StudioAmrita Studio
226 ONE PIECE: PIRATE WARRIORS 4 Mar 26, 2020 $59.99N/A (N/A)500,000 .. 1,000,0007.5%01:03 (01:03)Koei TecmoBANDAI NAMCO Entertainment
227 Coffin Rot Brewing Co. Mar 13, 2020 $14.99N/A (N/A)20,000 .. 50,0000%00:00 (00:00)Nooner Bear Studio LLCClique Games
228 Horizon's Gate Mar 9, 2020 $19.99N/A (N/A)50,000 .. 100,0000%00:00 (00:00)Rad CodexRad Codex
229 Paper Pirates Feb 28, 2020 $8.99N/A (N/A)0 .. 20,0000%00:00 (00:00)Iteration GamesIteration Games
230 Blackwake Feb 19, 2020 $4.99N/A (N/A)200,000 .. 500,0000%00:00 (00:00)Mastfire Studios Pty LtdMastfire Studios Pty Ltd
231 Void Destroyer 2 Feb 6, 2020 $9.99N/A (N/A)20,000 .. 50,0000%00:00 (00:00)Iteration 11Iteration 11
232 El Tesoro de Isla Alcachofa Aug 8, 2000 $11.99N/A (N/A)20,000 .. 50,0000%00:00 (00:00)Alcachofa SoftErbe Software
233 P1R4T3S Jan 31, 2020 $9.99N/A (N/A)0 .. 20,0000%00:00 (00:00)LLC Blini GamesLLC Blini Games
234 A Percent of a Pirate Jan 17, 2020 $0.99N/A (N/A)20,000 .. 50,0000%00:00 (00:00)LuminarkLuminark
235 kraken's curse Dec 8, 2018 $2.99N/A (N/A)0 .. 20,0000%00:00 (00:00)Sokpop CollectiveSokpop Collective
236 Sea King Dec 24, 2019 $4.99N/A (N/A)0 .. 20,0000%00:00 (00:00)Interactive StoneInteractive Stone
237 SugarMill Dec 19, 2019 $19.99N/A (N/A)0 .. 20,0000%00:00 (00:00)Aatlantis CodeAatlantis Code
238 Uniseas Dec 12, 2019 $2.99N/A (N/A)0 .. 20,0000%00:00 (00:00)Sokpop CollectiveSokpop Collective
239 XO Dec 2, 2019 $19.99N/A (N/A)0 .. 20,0000%00:00 (00:00)Jumpdrive StudiosJumpdrive Studios
240 Of Ships & Scoundrels Nov 14, 2019 $14.99N/A (N/A)0 .. 20,0000%00:00 (00:00)Korion InteractiveKorion Interactive
241 HAM-MASTER Nov 8, 2019 $0.69N/A (N/A)0 .. 20,0000%00:00 (00:00)Maick PaimPequi studios
242 Abandon Ship Oct 22, 2019 $24.99N/A (N/A)50,000 .. 100,0000%00:00 (00:00)Fireblade SoftwareFireblade Software
243 Feral Blue Oct 22, 2019 $19.99N/A (N/A)0 .. 20,0000%00:00 (00:00)Snowbird GamesSnowbird Games
244 Mutiny Island Oct 18, 2019 $7.99N/A (N/A)20,000 .. 50,0000%00:00 (00:00)ElushisElushis Music & Gaming
245 Seacurity Breach Sep 20, 2019 $9.99N/A (N/A)0 .. 20,0000%00:00 (00:00)SoaphogSoaphog
246 Blackbeard the Cursed Jungle Sep 18, 2019 $0.99N/A (N/A)20,000 .. 50,0000%00:00 (00:00)Boogygames StudiosBoogygames Studios
247 Buoyancy Aug 30, 2019 $12.99N/A (N/A)20,000 .. 50,0000%00:00 (00:00)Devs on a BoatDevs on a Boat
248 Uncharted Tides: Port Royal Aug 29, 2019 $14.99N/A (N/A)0 .. 20,0000%00:00 (00:00)Cordelia GamesArtifex Mundi
249 Pirates Are BLANKing Awesome Jul 17, 2019 $1.99N/A (N/A)0 .. 20,0000%00:00 (00:00)Poorwill GamesPoorwill Games
250 Naval Action Jun 13, 2019 FreeN/A (N/A)500,000 .. 1,000,0004%00:04 (00:01)Game-LabsGame-Labs
251 Giant Life Jun 7, 2019 $9.99N/A (N/A)0 .. 20,0000%00:00 (00:00)PatagoniartPatagoniart
252 Black Baron May 29, 2019 $10.99N/A (N/A)0 .. 20,0000%00:00 (00:00)toR StudiotoR Studio
253 Sail and Sacrifice May 23, 2019 $14.99N/A (N/A)0 .. 20,0000%00:00 (00:00)CAGE StudiosCAGE Studios
254 Ferret Scoundrels May 9, 2019 $19.99N/A (N/A)0 .. 20,0000%00:00 (00:00)Cryogenic EntertainmentCryogenic Entertainment
255 Match Three Pirates! Heir to Davy Jones Feb 27, 2019 $9.99N/A (N/A)0 .. 20,0000%00:00 (00:00)Graphium StudioDenda Games
256 Privateers Apr 18, 2019 $9.99N/A (N/A)0 .. 20,0000%00:00 (00:00)Monster TreeMonster Tree
257 Sticks And Bones Mar 28, 2019 $5.99N/A (N/A)20,000 .. 50,0000%00:00 (00:00)Bold Statement GamesBold Statement Games
258 Shipped Mar 28, 2019 $9.99N/A (N/A)20,000 .. 50,0000%00:00 (00:00)MajorariattoMajorariatto
259 ONE PIECE World Seeker Mar 14, 2019 $59.99N/A (N/A)50,000 .. 100,0000%00:00 (00:00)GANBARION Co., Ltd.BANDAI NAMCO Entertainment
260 Block of Rum Feb 5, 2019 $1.99N/A (N/A)0 .. 20,0000%00:00 (00:00)Obi-WanyaObi-Wanya
261 Sea Birds: End of an Age Jan 1, 2019 $1.99N/A (N/A)0 .. 20,0000%00:00 (00:00)Kevin AdamsKevin Adams
262 ATLAS Dec 22, 2018 $29.99N/A (N/A)1,000,000 .. 2,000,0001.28%153:10 (51:03)Grapeshot Games, Instinct GamesGrapeshot Games
263 Heart of Moon : The Mask of Seasons Dec 6, 2018 $5.99N/A (N/A)0 .. 20,0000%00:00 (00:00)UnikgameUnikware
264 Pirates of the Polygon Sea Nov 30, 2018 $8.99N/A (N/A)0 .. 20,0000%00:00 (00:00)Praxia EntertainmentPraxia Entertainment
265 Swords and Sandals Pirates Nov 30, 2018 $6.99N/A (N/A)0 .. 20,0000%00:00 (00:00)Whiskeybarrel StudioseGames.com
266 Pirate Island Rescue Sep 17, 2018 $1.99N/A (N/A)0 .. 20,0000%00:00 (00:00)Bad Logic StudiosBad Logic Studios
267 Ink Plane Sep 16, 2018 $0.99N/A (N/A)0 .. 20,0000%00:00 (00:00)Artur PetrovArtur Petrov
268 Salty Seabird Bay Sep 11, 2018 $5.99N/A (N/A)0 .. 20,0000%00:00 (00:00)ZealwindZealwind
269 Flynn and Freckles Sep 7, 2018 $9.99N/A (N/A)0 .. 20,0000%00:00 (00:00)Rookie Hero GamesRookie Hero Games
270 Factory pirates Aug 24, 2018 $0.99N/A (N/A)0 .. 20,0000%00:00 (00:00)WhackAKey GamesBig Black Bear
271 Space Captain McCallery - Episode 1: Crash Landing Jul 20, 2018 $4.99N/A (N/A)20,000 .. 50,0000%00:00 (00:00)Renegade Sector GamesRenegade Sector Games
272 Adventure Time: Pirates of the Enchiridion Jul 17, 2018 $24.99N/A (N/A)0 .. 20,0000%00:00 (00:00)Climax StudiosOutright Games Ltd.
273 Virtual Pirate VR Jul 16, 2018 $9.99N/A (N/A)0 .. 20,0000%00:00 (00:00)MAMMOSSIX Co., Ltd.MAMMOSSIX Co., Ltd.
274 Out of Reach Jul 13, 2018 $14.99N/A (N/A)50,000 .. 100,0000%00:00 (00:00)Space Boat StudiosSpace Boat Studios
275 SAS Jun 6, 2018 $14.99N/A (N/A)20,000 .. 50,0000%00:00 (00:00)True Illusion SoftwareTrue Illusion Software
276 Cursed Lands May 18, 2018 $24.99N/A (N/A)0 .. 20,0000%00:00 (00:00)Winter WolvesWinter Wolves
277 Pirate Code Apr 24, 2018 $14.99N/A (N/A)0 .. 20,0000%00:00 (00:00)Circuit HiveCircuit Hive
278 Don't Sink Apr 13, 2018 $9.99N/A (N/A)20,000 .. 50,0000%00:00 (00:00)Fern Nigro, Christopher Anselmo, Daniel MarquesStudio Eris
279 HYKEE - Episode 1: Underwater Apr 13, 2018 $0.99N/A (N/A)0 .. 20,0000%00:00 (00:00)NachoNacho
280 Levantera: Tale of The Winds Apr 2, 2018 $9.99N/A (N/A)0 .. 20,0000%00:00 (00:00)Lasso GamesLasso Games
281 The Pirate's Fate Mar 27, 2018 $19.99N/A (N/A)0 .. 20,0000%00:00 (00:00)T.F. Wright, VolkenfoxFoxWright Productions
282 Salt Feb 6, 2018 $14.99N/A (N/A)50,000 .. 100,0000%00:00 (00:00)Lavaboots StudiosLavaboots Studios
283 VR Regatta - The Sailing Game Jan 30, 2018 $29.99N/A (N/A)500,000 .. 1,000,0000%00:00 (00:00)MarineVerseMarineVerse
284 Space Pirates And Zombies 2 Nov 7, 2017 $19.99N/A (N/A)200,000 .. 500,0000%00:00 (00:00)MinMax Games Ltd.MinMax Games Ltd.
285 Mutiny!! Oct 20, 2017 $9.99N/A (N/A)0 .. 20,0000%00:00 (00:00)LupiesoftLupiesoft, MangaGamer
286 Space Pirate Trainer Oct 12, 2017 $14.99N/A (N/A)200,000 .. 500,0000%00:00 (00:00)I-IllusionsI-Illusions
287 Pinball Wicked Oct 12, 2017 $9.99N/A (N/A)0 .. 20,0000%00:00 (00:00)FormslingersFormslingers
288 Captain vs Sky Pirates Oct 10, 2017 $2.99N/A (N/A)50,000 .. 100,0000%00:00 (00:00)Boogygames StudiosBoogygames Studios
289 Captain Firebeard and the Bay of Crows Oct 4, 2017 $9.99N/A (N/A)0 .. 20,0000%00:00 (00:00)Sapphire Dragon ProductionsSapphire Dragon Productions
290 战术狂想1(Chimera of Tactics 1) Sep 27, 2017 $0.99N/A (N/A)0 .. 20,0000%00:00 (00:00)自由愉悦小黄猫(Free pleasure little yellow cat)自由愉悦小黄猫(Free pleasure little yellow cat)
291 Battle of Frigates Sep 21, 2017 $2.99N/A (N/A)50,000 .. 100,0000%00:00 (00:00)Dmitriy Uvarov, Vyacheslav ShilikhinDroid Riot
292 The Caribbean Sail Sep 19, 2017 $14.99N/A (N/A)20,000 .. 50,0000%00:00 (00:00)Victorian ClambakeVictorian Clambake
293 Captain Backwater Sep 12, 2017 FreeN/A (N/A)0 .. 20,0000%00:00 (00:00)Jochen Heizmann, Emmanuel Henné, IntermediawareAsylum Square
294 One Piece: Unlimited World Red - Deluxe Edition Aug 25, 2017 $39.99N/A (N/A)0 .. 20,0000%00:00 (00:00)GanbarionBANDAI NAMCO Entertainment
295 Rule with an Iron Fish - A Pirate Fishing Adventure Aug 24, 2017 $9.99N/A (N/A)0 .. 20,0000%00:00 (00:00)Kestrel GamesKestrel Games
296 Cutthroat Gunboat Aug 11, 2017 $1.99N/A (N/A)0 .. 20,0000%00:00 (00:00)Minor FactionMinor Faction
297 The Zwuggels - A Beach Holiday Adventure for Kids Jul 20, 2017 $2.99N/A (N/A)0 .. 20,0000%00:00 (00:00)Ploosh GmbHPloosh GmbH
298 Robot Pirates Jun 9, 2017 $1.99N/A (N/A)0 .. 20,0000%00:00 (00:00)Tydecon GamesTydecon Games
299 Lone Pirate VR May 26, 2017 $0.99N/A (N/A)0 .. 20,0000%00:00 (00:00)b08b08
300 Landless May 10, 2017 $14.99N/A (N/A)0 .. 20,0000%00:00 (00:00)CodeBulletCodeBullet
301 Neighboring Islands Apr 30, 2017 $0.69N/A (N/A)50,000 .. 100,0000%00:00 (00:00)Angry gamesЛД [ЛетоДайджест]
302 Heroes of the Seven Seas VR Oct 14, 2016 $6.99N/A (N/A)0 .. 20,0000%00:00 (00:00)Mirage Interactive, 北京魔视互动科技有限公司Mirage Interactive, 北京魔视互动科技有限公司
303 Smash Up Oct 12, 2016 $6.99N/A (N/A)20,000 .. 50,0000%00:00 (00:00)Nomad GamesNomad Games
304 Duke Grabowski, Mighty Swashbuckler Oct 6, 2016 $1.99N/A (N/A)20,000 .. 50,0000%00:00 (00:00)Venture Moon IndustriesAlliance Digital Media
305 VROOM: Galleon Sep 5, 2016 $6.99N/A (N/A)0 .. 20,0000%00:00 (00:00)VROOMVROOM
306 One Piece Burning Blood Sep 1, 2016 $49.99N/A (N/A)100,000 .. 200,0003.03%00:39 (00:13)Spike Chunsoft Co., Ltd.BANDAI NAMCO Entertainment
307 Archipelago Aug 17, 2016 $0.99N/A (N/A)0 .. 20,0000%00:00 (00:00)TortTort
308 The Last Leviathan Jun 22, 2016 N/AN/A (N/A)50,000 .. 100,0000%00:00 (00:00)Super Punk GamesSuper Punk Games
309 V ARRR Jun 10, 2016 $9.99N/A (N/A)0 .. 20,0000%00:00 (00:00)Blackjard SoftworksBlackjard Softworks
310 Choice of the Pirate May 20, 2016 $4.99N/A (N/A)0 .. 20,0000%00:00 (00:00)Choice of GamesChoice of Games
311 Skyhook May 17, 2016 $4.99N/A (N/A)20,000 .. 50,0000%00:00 (00:00)Megastorm GamesMegastorm Games
312 Assassins vs Pirates May 10, 2016 $7.99N/A (N/A)0 .. 20,0000%00:00 (00:00)DEADBITDEADBIT
313 Pixel Survivors May 5, 2016 $3.99N/A (N/A)50,000 .. 100,0000%00:00 (00:00)PatagoniartPatagoniart
314 The Inner Sea Mar 30, 2016 $11.99N/A (N/A)0 .. 20,0000%00:00 (00:00)dsquaredsquare
315 Blood and Gold: Caribbean! Dec 10, 2015 $19.99N/A (N/A)100,000 .. 200,0000%00:00 (00:00)Snowbird GamesSnowbird Games
316 Astrox: Hostile Space Excavation Nov 30, 2015 $9.99N/A (N/A)20,000 .. 50,0000%00:00 (00:00)Jace MasulaJace Masula
317 Vendetta - Curse of Raven's Cry Nov 20, 2015 $29.99N/A (N/A)200,000 .. 500,0000%00:00 (00:00)Reality Pump StudiosTopWare Interactive, ACE
318 Caribbean Odyssey Nov 12, 2015 $9.99N/A (N/A)0 .. 20,0000%00:00 (00:00)Imran ArafatReality Gameware
319 Pirates vs Corsairs: Davy Jones's Gold May 23, 2013 $0.49N/A (N/A)20,000 .. 50,0000%00:00 (00:00)Little World StudioGames For All
320 Assassin's Creed Freedom Cry Feb 25, 2014 $14.99N/A (N/A)200,000 .. 500,0000%00:00 (00:00)Ubisoft MontrealUbisoft
321 Dead Man's Draw Feb 6, 2014 $1.74N/A (N/A)100,000 .. 200,0000%00:00 (00:00)Stardock EntertainmentStardock Entertainment
322 Captain Morgane and the Golden Turtle Jan 3, 2014 $4.99N/A (N/A)20,000 .. 50,00016.67%00:07 (00:02)WizarBoxReef Entertainment
323 Nightmares from the Deep 2: The Siren`s Call Jul 24, 2013 N/AN/A (N/A)50,000 .. 100,0000%00:00 (00:00)Artifex MundiArtifex Mundi
324 Sea Dogs: To Each His Own - Pirate Open World RPG Dec 2012 $14.99N/A (N/A)200,000 .. 500,0000%00:00 (00:00)BlackMark StudioAkella, Valkyrie Initiative
Overview

Pirates

Games with this tag: 324
Average userscore: N/A%
Average metascore: 75.1%
Average playtime: 16:29
Total copies owned: 42,650,000
Average price: $12.6
Help

Owners: Estimated number of people owning this game. The number might be way too small for new releases and sometimes way too big for games that had free weekend event recently. Read more on About page.

Playtime: Average hours played in total per person that have actually launched this game since March 2009. This time is calculated for the whole lifetime, not for the particular year.

Average score: Average users and metacritic score for all games with this score assigned.

Average playtime: Average lifetime playtime for all games where this data is available.

Games in this genre: Self-explaining - number of games with this tag. Only inculdes games with sales data available.

Total copies owned: Refers to total copies of games with this tag acquired by users for the lifetime. Includes copies sold, downloaded for free and given out.

This number might be too small for recently released games or too big for games that had a free weekend in the last couple of months.

Graphs

Login required.

Please register or log in to see this information.

Login required.

Please register or log in to see this information.